Temperature
10 11 11 11 12 11 11 12 12 13 14 16 17 15 15 17 17 17 17 18 18 17 17 16 15 14 12 10 8 6 4 3 2 2 1 -0 -1 -2 -2 -3 -3 -4 -4 -5
10 11 10 10 11 12 12 12 12 13 14 16 16 15 15 15 16 16 17 17 17 17 17 16 15 14 13 11 9 7 5 3 2 2 1 -0 -1 -2 -2 -3 -3 -4 -4 -5
8 10 11 10 12 13 11 10 11 12 14 14 13 12 13 15 16 16 17 17 17 17 17 16 15 14 13 12 10 7 5 4 2 1 0 -0 -1 -2 -2 -3 -3 -4 -4 -4
7 10 10 13 13 12 12 12 11 12 13 13 12 14 15 15 16 16 17 17 17 17 16 16 15 14 13 11 9 7 5 4 3 1 1 -0 -1 -2 -2 -3 -3 -3 -4 -4
6 7 9 10 12 12 11 12 12 12 13 13 13 12 15 18 18 17 17 17 16 16 15 15 14 13 12 11 9 7 6 4 3 2 1 -0 -1 -1 -2 -3 -3 -3 -4 -4
6 6 8 11 13 13 13 12 14 12 12 12 11 11 14 18 17 17 16 16 15 15 14 14 14 13 12 11 9 8 7 5 3 2 1 -0 -1 -1 -2 -3 -3 -3 -4 -4
6 6 8 10 12 13 13 14 15 15 14 14 11 13 16 16 16 15 15 15 14 14 14 14 13 12 11 10 10 9 7 5 3 2 1 -0 -1 -2 -2 -3 -3 -3 -4 -4
5 5 8 10 10 11 13 15 15 15 15 14 14 14 15 15 15 14 14 14 13 13 13 13 12 11 11 10 10 8 6 5 3 2 1 -0 -1 -2 -2 -3 -3 -3 -4 -4
7 10 11 12 12 14 14 14 15 14 14 14 13 14 14 14 14 13 13 13 12 12 12 12 12 11 10 10 8 7 5 4 3 2 0 -1 -1 -2 -2 -3 -3 -3 -4 -4
7 8 10 12 13 14 14 14 14 13 13 13 13 13 12 12 12 12 11 11 11 11 11 11 11 10 10 9 7 6 5 4 3 1 0 -1 -1 -2 -2 -2 -3 -3 -4 -4
8 8 10 12 13 13 13 13 12 12 12 12 11 11 11 11 10 10 10 10 10 10 10 10 10 10 9 8 6 5 4 3 2 1 0 -1 -1 -1 -2 -2 -3 -3 -4 -4
9 10 10 11 11 11 11 11 11 11 11 10 10 10 10 9 9 9 9 9 9 9 9 10 9 9 8 7 6 4 3 2 1 0 -0 -1 -1 -2 -2 -3 -3 -3 -4 -4
10 10 10 10 10 10 10 9 9 9 9 9 9 8 8 8 8 8 8 9 8 8 8 9 9 9 8 6 5 4 3 1 0 -0 -0 -1 -1 -2 -2 -3 -3 -4 -4 -5
9 9 9 9 9 8 8 8 8 8 8 7 7 7 7 7 7 7 7 7 7 7 7 8 8 8 7 5 4 3 1 0 -1 -1 -0 -0 -1 -1 -2 -3 -3 -3 -4 -5
8 8 7 7 7 7 7 7 7 6 6 6 6 6 6 5 6 6 6 6 6 6 7 7 7 7 5 4 3 2 1 -1 -2 -2 -2 -1 -1 -2 -2 -3 -3 -4 -4 -5
6 6 6 6 6 5 5 5 5 5 5 5 5 5 4 4 4 5 5 5 5 5 6 6 6 6 5 4 3 1 -0 -1 -3 -3 -3 -2 -2 -2 -2 -3 -3 -4 -4 -4
5 5 5 5 4 4 4 4 4 4 4 4 3 3 3 3 3 4 4 4 4 4 5 5 5 4 4 3 2 0 -1 -2 -4 -5 -5 -3 -2 -2 -2 -3 -3 -3 -4 -4
5 5 4 4 4 3 4 4 4 3 3 3 3 2 2 2 2 2 2 2 3 4 4 4 4 3 3 2 1 -0 -2 -3 -4 -6 -5 -4 -3 -2 -2 -3 -3 -3 -4 -5
4 4 4 4 3 3 3 3 3 3 3 2 2 1 1 1 1 1 1 1 2 2 3 3 3 3 2 1 0 -1 -3 -3 -5 -6 -6 -5 -4 -3 -3 -3 -3 -3 -4 -5
4 4 4 4 4 3 3 3 3 2 2 2 1 1 1 1 1 1 1 1 1 1 1 1 2 2 1 1 -1 -2 -3 -4 -5 -6 -7 -6 -5 -3 -3 -3 -3 -4 -4 -4
3 3 3 3 3 3 3 3 2 2 2 1 1 1 0 0 0 0 -0 -0 1 1 1 1 1 1 1 -0 -1 -3 -4 -5 -6 -7 -7 -7 -6 -4 -3 -3 -3 -4 -4 -4
3 3 3 3 3 3 3 2 2 1 1 1 1 0 0 0 0 -0 -0 -0 0 0 0 0 0 0 -0 -1 -2 -3 -4 -6 -7 -7 -8 -7 -6 -5 -3 -3 -3 -4 -4 -4
2 2 2 2 1 1 2 2 1 1 1 0 0 -0 -0 -0 -1 -1 -1 0 -0 -0 -0 -0 -0 -0 -1 -2 -3 -4 -5 -6 -7 -8 -8 -7 -7 -5 -3 -3 -3 -3 -4 -4
1 1 1 1 1 1 1 1 0 0 0 -0 -0 -0 -1 -1 -0 -0 -0 -0 -0 -0 -0 -0 -0 -1 -2 -2 -4 -5 -6 -7 -8 -8 -8 -8 -7 -6 -4 -3 -3 -3 -4 -4
0 0 0 0 0 -0 -0 -0 -1 -0 -1 -1 -1 -0 -0 -0 -1 -0 -0 -0 -0 -0 -0 -0 -1 -1 -2 -3 -4 -5 -6 -7 -8 -8 -8 -8 -7 -6 -4 -3 -3 -3 -4 -4
-1 -1 -1 -1 -1 -1 -1 -1 -2 -2 -2 -2 -1 -1 -0 -0 -0 -0 -0 -0 -0 -0 -0 -0 -1 -1 -2 -3 -4 -5 -6 -7 -8 -8 -8 -8 -7 -6 -5 -4 -4 -3 -4 -4
-1 -1 -1 -1 -1 -1 -2 -2 -2 -2 -2 -2 -2 -1 -1 -1 -0 -0 -0 -0 -0 -0 -0 -1 -1 -2 -3 -4 -5 -6 -6 -7 -8 -8 -8 -8 -7 -6 -5 -4 -4 -4 -4 -4
Wind_Speed
10 11 7 9 12 11 15 15 16 19 23 29 25 14 11 11 12 12 12 11 12 13 13 13 14 15 16 16 16 16 15 15 15 13 11 9 9 9 8 8 8 8 8 9
7 10 11 11 17 20 19 16 19 25 27 29 22 11 10 12 12 12 13 12 13 13 13 14 16 17 17 17 17 16 17 16 13 11 11 11 10 9 8 8 7 7 8 9
7 6 6 10 15 18 11 11 12 18 21 20 16 13 11 11 11 12 13 13 13 13 14 16 17 17 19 18 16 17 17 15 14 13 13 12 11 9 9 8 7 8 9 9
5 2 11 11 6 9 11 14 15 16 19 17 13 10 10 10 12 14 13 12 12 11 12 13 13 14 14 14 16 18 17 15 14 14 13 11 11 11 10 7 7 7 9 9
4 6 11 10 9 7 9 11 12 17 20 17 8 7 9 9 9 12 12 11 11 10 10 9 11 12 13 15 16 17 18 17 16 15 14 13 13 12 9 7 8 8 8 8
5 6 10 9 5 2 1 9 8 6 10 7 2 4 7 8 6 8 10 9 9 8 7 8 9 11 14 16 18 20 20 18 16 16 15 15 14 12 9 8 8 8 8 7
9 10 12 10 4 4 5 9 5 3 4 2 5 8 9 10 10 11 11 12 10 9 9 10 9 12 16 17 21 20 15 15 16 16 16 14 12 10 9 8 7 7 7 7
8 8 13 7 7 9 9 5 6 7 7 7 9 12 13 13 13 13 13 13 11 10 12 9 10 14 17 20 18 13 14 16 17 16 14 13 12 11 9 8 8 7 6 6
13 13 7 5 10 8 6 9 10 9 11 10 11 13 14 13 13 13 13 12 10 10 12 10 11 15 19 18 13 14 16 17 15 15 14 12 13 12 9 8 7 6 6 6
9 12 12 11 10 11 12 12 13 13 14 12 13 15 15 14 13 12 12 12 10 10 12 13 12 16 19 13 13 16 17 16 15 15 14 13 11 10 9 9 8 7 7 6
14 12 11 11 10 10 11 12 14 15 14 12 12 13 13 13 13 12 11 11 10 10 13 16 12 14 15 12 14 16 16 16 15 15 14 14 13 11 11 10 9 8 7 6
24 16 15 15 13 15 16 14 14 14 13 11 10 12 12 12 11 11 11 11 11 11 13 15 12 13 13 14 16 17 15 15 13 12 12 12 11 10 15 13 15 16 14 10
24 20 20 17 13 11 11 11 11 11 10 11 10 9 10 10 10 11 12 13 13 13 14 14 12 12 11 13 16 18 17 15 13 13 13 13 12 11 10 11 15 15 15 14
15 14 15 14 13 10 10 10 8 7 7 8 8 9 9 9 11 13 14 14 13 14 15 13 12 13 9 13 16 18 16 18 16 13 14 13 13 12 10 10 9 7 8 12
14 12 12 9 6 6 6 6 7 8 9 10 9 10 11 12 13 14 15 14 13 13 14 13 13 13 8 12 16 17 15 12 13 12 12 12 12 11 10 10 9 6 4 5
7 4 3 3 4 5 6 7 8 9 10 10 11 12 13 13 14 14 14 12 12 15 16 14 14 13 8 11 15 14 14 21 17 12 12 12 12 12 11 10 9 8 8 7
3 1 2 3 4 5 6 7 8 10 11 12 13 14 13 14 14 15 15 13 13 14 15 14 14 12 8 11 14 12 12 16 24 15 12 13 13 13 12 11 10 9 8 9
5 4 2 1 4 6 8 9 10 11 12 13 14 13 14 15 16 17 17 16 15 16 15 12 11 10 8 9 11 11 11 12 13 12 13 13 13 12 11 11 11 10 7 8
3 2 3 5 7 8 9 10 12 11 12 12 13 14 15 15 15 15 15 14 15 16 14 11 16 11 8 10 12 10 12 13 13 12 12 16 15 11 11 11 11 10 9 8
3 5 6 7 8 8 10 11 12 13 13 12 13 14 15 15 15 15 14 14 13 12 12 14 13 10 8 9 14 9 13 14 14 14 14 13 13 13 12 12 11 11 10 9
7 7 8 10 11 11 12 12 12 14 14 13 13 15 16 17 15 14 13 15 14 12 12 16 11 9 7 8 13 10 13 14 14 14 14 14 13 13 13 12 12 11 11 10
8 9 11 11 13 15 13 12 13 14 15 14 14 15 16 16 15 14 12 12 14 17 13 9 9 11 11 11 8 11 13 14 13 13 13 13 13 13 13 13 12 11 11 10
9 10 11 13 14 15 16 14 13 13 14 15 16 16 16 15 13 14 15 11 10 17 14 10 14 18 18 9 8 11 13 14 14 14 13 13 13 12 12 13 12 11 11 10
11 12 12 13 12 13 15 15 14 13 14 14 14 15 15 14 13 11 12 17 20 21 13 14 20 20 17 6 8 10 12 13 13 13 13 12 11 11 11 11 11 11 11 12
12 12 12 13 13 12 13 14 14 14 13 12 13 14 12 11 12 14 13 14 19 20 13 15 19 18 10 5 8 10 11 12 13 13 13 12 12 11 11 11 11 11 11 11
12 12 12 12 12 12 11 11 12 12 13 14 13 11 11 11 12 13 12 13 14 17 13 10 9 10 7 6 8 11 12 13 15 14 13 12 12 12 11 11 12 11 11 11
11 11 10 11 10 9 9 10 12 13 13 14 16 14 13 13 12 12 13 12 11 10 9 8 7 7 6 5 7 9 11 12 12 12 12 12 11 11 11 11 11 10 10 11
Wind_Direction
254 262 246 241 248 229 218 225 239 255 257 267 272 275 262 262 268 268 260 247 234 230 225 217 211 209 206 203 198 194 193 198 204 201 197 198 204 209 216 226 242 250 261 268
271 259 248 252 254 249 242 237 242 258 267 266 276 282 271 268 268 268 262 253 244 236 228 221 216 212 207 204 199 193 197 202 199 192 193 200 205 210 218 230 242 253 260 268
265 281 312 263 238 238 226 217 217 246 258 271 279 273 265 264 260 256 259 259 253 242 233 228 219 211 208 204 194 194 199 199 194 192 197 202 207 211 221 230 240 253 261 266
259 292 243 247 237 225 233 246 230 246 261 269 269 279 266 255 256 263 263 263 261 253 242 232 219 210 205 195 194 198 200 198 194 192 197 199 204 216 223 226 236 250 261 266
210 246 269 287 271 219 218 269 242 244 263 276 300 307 294 268 241 246 258 263 266 261 250 235 215 201 192 196 197 201 203 200 195 191 193 196 208 218 221 223 236 245 255 262
202 227 252 252 258 168 127 287 279 241 265 295 50 328 289 307 315 287 282 279 279 279 259 239 215 186 192 201 202 208 206 201 194 191 193 200 208 213 214 219 233 245 255 256
221 237 261 259 256 139 213 254 314 334 300 287 222 241 266 298 301 292 290 287 283 272 256 243 205 187 203 208 214 212 200 192 190 192 195 199 202 205 210 218 229 239 253 259
197 221 256 237 157 196 233 303 310 310 303 290 272 273 281 287 286 288 289 288 282 269 262 245 200 197 212 220 218 198 189 191 192 191 191 194 196 202 206 213 225 239 248 260
204 225 253 196 215 250 288 289 292 294 296 295 287 284 286 284 284 286 283 282 278 265 267 254 213 206 222 227 202 187 190 194 193 190 190 188 192 198 201 207 219 232 238 252
250 256 264 268 259 262 262 264 276 284 289 289 282 283 287 288 288 288 286 284 282 274 267 264 234 220 229 222 189 189 195 195 192 190 190 191 193 196 200 204 212 222 230 240
264 271 283 265 262 273 285 289 290 288 289 288 285 285 286 290 289 288 287 286 282 272 268 268 253 232 228 209 189 195 197 195 193 193 190 192 197 201 202 206 205 209 217 221
268 271 273 282 285 288 289 289 292 296 299 300 295 288 289 290 291 292 294 292 291 282 275 274 264 246 227 205 196 196 198 197 194 191 190 191 193 202 216 213 223 228 224 218
262 270 272 281 284 286 287 291 295 296 296 302 303 300 301 299 300 302 300 299 296 292 286 282 273 258 229 203 199 201 201 195 192 189 189 190 191 191 197 214 224 228 230 232
260 270 277 282 288 297 299 302 307 314 316 312 309 313 314 307 306 306 302 299 299 298 295 290 280 269 235 204 202 205 203 199 192 190 189 189 190 190 188 189 196 212 223 227
263 263 270 284 305 323 328 335 339 334 328 324 318 314 310 307 303 299 299 299 300 298 297 294 286 277 242 207 204 205 201 200 195 188 187 187 186 184 184 187 191 188 181 212
280 300 324 355 2 356 354 352 339 323 315 308 306 303 299 296 294 294 296 298 299 300 300 297 289 280 248 212 206 205 203 202 193 187 185 184 183 183 183 185 188 189 193 193
249 312 21 15 353 335 323 310 299 296 296 297 296 296 297 299 300 301 303 303 297 293 292 289 286 281 251 216 205 203 198 200 198 191 188 186 186 186 183 183 187 191 195 192
112 124 128 274 293 297 297 294 289 290 291 290 292 295 297 299 300 300 301 303 304 302 298 289 282 281 258 223 206 199 193 194 193 187 188 189 188 185 182 182 187 186 183 194
128 185 251 265 268 272 280 287 290 289 290 293 295 296 295 294 292 293 297 300 301 301 300 300 305 296 264 232 210 197 192 191 192 188 187 193 191 184 182 182 184 183 181 182
268 269 274 280 282 283 290 292 294 297 297 296 296 297 298 297 296 297 298 296 289 282 285 295 300 289 267 241 218 198 193 192 192 189 187 190 189 185 184 183 182 180 180 182
290 293 299 303 304 302 299 298 300 300 300 297 296 297 298 298 297 296 298 300 295 288 292 298 297 285 268 246 221 199 195 194 193 190 188 190 190 187 184 182 181 181 181 181
300 303 305 306 306 306 305 301 297 296 297 298 297 296 298 299 299 296 284 282 287 293 298 292 289 286 281 257 217 200 196 195 194 191 189 189 189 187 184 182 182 182 179 176
296 297 299 300 299 299 300 299 294 292 293 295 297 297 295 294 295 295 297 291 288 294 298 288 291 294 288 260 216 201 197 195 193 192 190 189 189 188 185 183 182 178 173 172
294 296 294 293 293 295 297 298 295 293 289 289 287 284 287 293 293 283 280 289 295 296 295 291 295 297 291 249 209 199 196 194 192 190 189 188 186 185 184 182 180 175 171 168
283 286 289 293 295 295 293 295 297 297 294 294 290 286 283 279 283 290 290 288 291 296 294 294 296 297 290 241 206 194 191 191 190 188 188 186 184 184 183 181 179 174 170 170
277 283 285 282 282 285 289 292 295 298 300 301 300 296 292 288 284 285 287 286 285 291 293 290 288 288 274 238 204 191 186 189 192 190 186 183 181 181 182 181 177 174 170 167
276 279 283 286 284 278 279 285 291 295 296 297 300 300 298 296 294 291 289 288 289 288 288 286 282 274 260 229 199 186 181 181 182 181 180 179 178 180 181 177 176 172 166 163
Height
1543 1538 1538 1536 1533 1531 1532 1525 1523 1504 1496 1478 1470 1470 1469 1467 1465 1463 1460 1458 1457 1456 1454 1452 1451 1449 1448 1448 1450 1451 1453 1454 1456 1460 1461 1462 1463 1463 1463 1462 1460 1458 1454 1451
1540 1532 1532 1531 1523 1518 1516 1513 1507 1497 1485 1468 1465 1466 1464 1462 1459 1456 1454 1452 1451 1450 1448 1446 1444 1442 1441 1440 1441 1442 1443 1445 1449 1452 1454 1455 1456 1457 1456 1455 1454 1451 1448 1445
1543 1533 1528 1526 1508 1502 1502 1498 1496 1491 1474 1463 1463 1461 1459 1456 1454 1451 1449 1448 1446 1445 1442 1440 1438 1436 1433 1432 1433 1433 1435 1437 1441 1444 1446 1448 1449 1450 1449 1449 1448 1445 1443 1439
1543 1533 1533 1500 1489 1489 1489 1484 1482 1476 1466 1461 1459 1457 1454 1451 1449 1447 1445 1444 1442 1440 1438 1435 1432 1429 1427 1425 1424 1424 1425 1428 1432 1435 1438 1440 1442 1442 1443 1443 1441 1440 1437 1434
1543 1538 1517 1500 1487 1484 1485 1479 1469 1467 1461 1457 1457 1455 1448 1446 1445 1445 1443 1442 1439 1436 1433 1429 1425 1422 1419 1417 1415 1415 1415 1418 1422 1426 1429 1432 1434 1435 1436 1436 1435 1433 1431 1428
1538 1536 1519 1492 1480 1478 1480 1479 1462 1461 1459 1458 1458 1460 1451 1446 1445 1443 1441 1438 1435 1431 1427 1423 1419 1415 1411 1408 1406 1404 1406 1409 1414 1418 1421 1423 1426 1428 1429 1429 1428 1427 1425 1423
1529 1526 1502 1485 1478 1479 1486 1473 1461 1459 1458 1457 1457 1454 1449 1445 1442 1439 1436 1433 1428 1424 1419 1415 1412 1407 1402 1399 1396 1397 1399 1402 1405 1408 1412 1415 1418 1420 1422 1422 1422 1421 1420 1417
1522 1522 1503 1475 1478 1477 1469 1462 1460 1457 1456 1454 1451 1447 1443 1439 1435 1432 1428 1425 1421 1415 1411 1407 1403 1398 1393 1389 1389 1390 1390 1391 1394 1398 1403 1406 1410 1412 1414 1415 1415 1415 1414 1412
1496 1486 1474 1471 1469 1466 1465 1461 1458 1455 1452 1450 1445 1440 1436 1432 1428 1424 1420 1416 1412 1407 1402 1398 1394 1389 1384 1381 1381 1380 1380 1382 1386 1390 1394 1398 1401 1404 1406 1408 1408 1409 1408 1407
1485 1474 1469 1466 1464 1462 1460 1457 1454 1451 1448 1444 1439 1433 1429 1425 1420 1416 1412 1408 1404 1399 1393 1389 1385 1380 1376 1374 1372 1371 1371 1373 1377 1380 1385 1389 1393 1397 1399 1400 1401 1402 1402 1401
1473 1467 1463 1459 1458 1456 1454 1451 1448 1445 1441 1437 1432 1427 1422 1417 1413 1409 1404 1400 1396 1390 1384 1380 1376 1371 1367 1365 1363 1362 1362 1364 1367 1371 1376 1380 1384 1388 1391 1394 1395 1396 1396 1396
1461 1460 1458 1452 1453 1451 1447 1444 1441 1437 1432 1429 1425 1420 1415 1410 1406 1401 1397 1392 1387 1382 1376 1371 1367 1362 1358 1355 1353 1352 1352 1355 1358 1362 1367 1372 1377 1381 1384 1387 1389 1390 1390 1390
1453 1451 1449 1445 1444 1442 1439 1436 1433 1430 1426 1421 1417 1414 1409 1403 1399 1394 1390 1385 1379 1374 1368 1363 1358 1353 1350 1347 1344 1343 1343 1345 1348 1352 1357 1363 1368 1372 1376 1380 1382 1384 1385 1385
1446 1444 1440 1438 1437 1435 1432 1429 1426 1423 1419 1416 1412 1407 1402 1397 1392 1387 1382 1377 1372 1366 1360 1355 1349 1345 1342 1338 1335 1333 1334 1336 1338 1341 1347 1353 1359 1364 1369 1372 1375 1376 1379 1380
1437 1436 1434 1432 1431 1429 1426 1423 1420 1417 1413 1409 1405 1401 1396 1390 1384 1379 1375 1370 1364 1358 1353 1347 1342 1337 1334 1330 1326 1325 1326 1327 1330 1333 1338 1344 1350 1356 1361 1365 1368 1371 1373 1374
1431 1430 1429 1428 1427 1425 1422 1419 1416 1412 1408 1404 1399 1394 1389 1383 1377 1371 1366 1362 1356 1350 1345 1340 1335 1330 1326 1321 1318 1316 1317 1319 1322 1326 1330 1335 1341 1348 1353 1357 1361 1364 1366 1369
1425 1425 1425 1424 1423 1421 1419 1416 1413 1408 1403 1397 1392 1386 1380 1374 1368 1363 1358 1354 1348 1343 1338 1333 1327 1322 1317 1313 1310 1308 1309 1311 1315 1317 1321 1326 1333 1339 1345 1350 1354 1357 1361 1363
1424 1425 1424 1423 1421 1418 1414 1410 1406 1401 1396 1390 1384 1378 1372 1366 1360 1355 1350 1344 1339 1334 1331 1326 1320 1315 1310 1306 1302 1301 1301 1303 1307 1309 1313 1318 1325 1332 1337 1342 1347 1351 1355 1358
1423 1423 1421 1419 1416 1412 1408 1403 1398 1393 1387 1382 1376 1369 1364 1359 1353 1347 1342 1337 1331 1325 1321 1318 1313 1307 1302 1298 1295 1294 1294 1295 1299 1303 1306 1312 1318 1324 1330 1336 1340 1345 1349 1352
1420 1419 1416 1413 1409 1406 1400 1395 1390 1385 1379 1374 1367 1361 1355 1350 1345 1340 1334 1329 1325 1320 1314 1310 1305 1300 1295 1291 1288 1286 1286 1288 1292 1296 1300 1305 1310 1316 1323 1329 1334 1339 1343 1346
1415 1412 1409 1405 1401 1397 1393 1388 1382 1376 1371 1366 1360 1353 1347 1342 1337 1332 1326 1320 1316 1313 1307 1302 1297 1292 1288 1284 1281 1279 1279 1281 1285 1289 1293 1298 1304 1310 1316 1322 1328 1332 1337 1341
1410 1406 1402 1398 1393 1388 1384 1379 1374 1368 1362 1357 1352 1346 1340 1334 1329 1324 1320 1315 1309 1305 1300 1294 1290 1285 1280 1276 1273 1272 1272 1275 1278 1283 1287 1292 1297 1303 1310 1316 1322 1327 1331 1336
1404 1400 1395 1391 1386 1380 1375 1371 1366 1360 1355 1350 1345 1339 1334 1328 1323 1317 1310 1306 1302 1297 1292 1287 1282 1277 1273 1269 1266 1265 1266 1268 1272 1276 1281 1286 1292 1298 1304 1311 1317 1321 1326 1331
1396 1392 1387 1382 1377 1371 1366 1361 1357 1352 1347 1342 1337 1332 1327 1321 1314 1311 1306 1299 1295 1290 1284 1279 1275 1270 1265 1262 1259 1259 1260 1262 1266 1271 1276 1281 1286 1293 1300 1306 1312 1317 1322 1327
1387 1383 1378 1373 1368 1363 1358 1353 1348 1342 1338 1333 1328 1324 1320 1315 1309 1302 1297 1292 1287 1282 1276 1271 1267 1262 1258 1254 1252 1252 1253 1256 1261 1265 1271 1276 1281 1288 1295 1302 1308 1313 1318 1323
1378 1373 1369 1365 1361 1356 1351 1346 1340 1335 1330 1324 1319 1316 1311 1307 1301 1295 1290 1285 1280 1275 1269 1264 1259 1254 1250 1247 1246 1246 1248 1252 1256 1261 1266 1271 1277 1284 1290 1297 1304 1309 1314 1319
1367 1363 1359 1355 1351 1348 1343 1338 1333 1328 1323 1318 1312 1307 1303 1298 1293 1288 1283 1278 1273 1268 1262 1257 1252 1248 1244 1242 1241 1241 1244 1247 1252 1257 1262 1267 1273 1280 1287 1294 1300 1306 1311 1316